Home > Time Zones > World Clock > Weather > Italy > Rome > Past weeks

Flag Weather past 2 weeks in Rome, Italy

Now
54 °F

Passing clouds.


Feels Like: 54 °F
Forecast: 55 / 69 °F
Wind: No wind

Location: Rome / Ciampino

Current Time: Nov 28, 2014 at 3:08:22 AM

Latest Report: Nov 28, 2014 at 2:15 AM


Visibility: N/A

Pressure: 29.89 "Hg

Humidity: 88%

Dew point: 50 °F

Location of RomeLocation

Historic Weather in Rome — Graph

°F

Rome temperature yesterday

Maximum temperature yesterday: 68 °F (at 1:45 PM)
Minimum temperature yesterday: 54 °F (at 5:45 AM)
Average temperature yesterday: 59 °F

Past Weeks' High & Low Weather Summary

 TemperatureHumidityPressure
High68 °F (Nov 27, 1:45 PM)100% (Nov 26, 5:45 AM)30.30 "Hg (Nov 26, 5:45 AM)
Low41 °F (Nov 21, 7:15 AM)39% (Nov 21, 1:45 PM)29.65 "Hg (Nov 13, 1:15 AM)
Average56 °F82%30.00 "Hg
* Reported Nov 13 1:15 AM — Nov 28 1:45 AM, Rome, Weather by CustomWeather, © 2014

Note: Actual official high and low records may vary slightly from our data, if they occured in-between our weather recording intervals... More about our weather records

Advertising

Rome weather history for previous 24 hours

 ConditionsComfort  
Time TempWeatherWind HumidityBarometerVisibility
1:45 AM
Nov 28
54 °FPassing clouds.6 mph94%29.89 "HgN/A
1:15 AM54 °FPassing clouds.No wind94%29.92 "HgN/A
12:15 AM54 °FPassing clouds.No wind94%29.92 "HgN/A
11:45 PM
Nov 27
55 °FPassing clouds.No wind88%29.92 "HgN/A
11:15 PM55 °FPassing clouds.5 mph94%29.92 "HgN/A
10:45 PM55 °FPassing clouds.3 mph88%29.92 "HgN/A
10:15 PM57 °FPassing clouds.3 mph88%29.92 "HgN/A
9:45 PM57 °FPassing clouds.No wind88%29.92 "HgN/A
9:15 PM59 °FPassing clouds.No wind88%29.92 "HgN/A
8:45 PM59 °FPassing clouds.2 mph88%29.92 "HgN/A
8:15 PM59 °FPassing clouds.2 mph82%29.92 "HgN/A
7:45 PM59 °FPassing clouds.No wind88%29.92 "HgN/A
7:15 PM59 °FPassing clouds.No wind88%29.92 "HgN/A
6:45 PM61 °FPassing clouds.5 mph83%29.92 "HgN/A
6:15 PM59 °FPassing clouds.7 mph88%29.89 "Hg5 mi
5:45 PM61 °FPassing clouds.5 mph77%29.89 "Hg5 mi
5:15 PM63 °FPassing clouds.6 mph83%29.89 "Hg5 mi
4:45 PM63 °FPassing clouds.6 mph83%29.89 "Hg5 mi
4:15 PM64 °FScattered clouds.10 mph83%29.89 "Hg5 mi
3:45 PM64 °FScattered clouds.10 mph88%29.89 "Hg5 mi
3:15 PM63 °FThunderstorms. Scattered clouds.12 mph88%29.89 "Hg5 mi
2:45 PM64 °FScattered clouds.10 mph73%29.92 "HgN/A
2:15 PM66 °FScattered clouds.13 mph68%29.89 "HgN/A
1:45 PM68 °FScattered clouds.12 mph69%29.92 "HgN/A
1:15 PM66 °FScattered clouds.12 mph73%29.92 "HgN/A
12:45 PM64 °FScattered clouds.9 mph73%29.92 "HgN/A
12:15 PM66 °FPassing clouds.10 mph73%29.95 "HgN/A
11:45 AM66 °FPassing clouds.10 mph73%29.95 "HgN/A
11:15 AM66 °FScattered clouds.9 mph73%29.95 "HgN/A
10:45 AM64 °FScattered clouds.10 mph73%29.95 "HgN/A
10:15 AM61 °FPassing clouds.No wind88%29.95 "HgN/A
9:45 AM57 °FPassing clouds.No wind88%29.95 "HgN/A
9:15 AM57 °FPartly sunny.No wind88%29.95 "HgN/A
8:45 AM55 °FPartly sunny.No wind94%29.95 "HgN/A
8:15 AM55 °FScattered clouds.No wind88%29.95 "HgN/A
7:45 AM55 °FScattered clouds.No wind88%29.92 "HgN/A
7:15 AM54 °FScattered clouds.No wind94%29.92 "HgN/A
6:45 AM54 °FPassing clouds.3 mph94%29.92 "HgN/A
6:15 AM54 °FPassing clouds.2 mph94%29.92 "HgN/A
5:45 AM54 °FPassing clouds.No wind94%29.92 "HgN/A
5:15 AM55 °FPassing clouds.No wind88%29.92 "HgN/A
4:45 AM55 °FPassing clouds.No wind88%29.92 "HgN/A
4:15 AM55 °FPassing clouds.No wind88%29.92 "HgN/A
3:45 AM55 °FPassing clouds.No wind88%29.95 "HgN/A
3:15 AM55 °FPassing clouds.No wind88%29.95 "HgN/A
Weather by CustomWeather, © 2014

See weather overviewHow to use our weather pages